"Pseudo-MPEC" for GG0410

Created 2023 Sep 27 1:22:10 UT using Find_Orb

Click here for an explanation of pseudo-MPECs

 
 Astrometry: 
     GG0410 *MC2023 09 18oFAstrometryN)Credacted;M6e^Gyclickb#G/-kqGgbmherejMQ62
     GG0410  MC2023 09 18kA6x66?4S/yl1RT4STwayobg1U_O3@A#rforWmSP'explanationQ62

Station data:
(Q62) iTelescope Observatory, Siding Spring  (S31.273286 E149.064420)
   Australia/NSW.  Observers H. Sato, T. Prystavski, M. Mattiazzo, A. Pearce,
   F. D. Romanov. 0.51-m f/6.8 astrograph + CCD + f/4.5 focal reducer0.43-m
   f/6.8 astrograph + CCD + focal reducer0.43-m f/6.8 astrograph + CCD0.10-m
   f/5 astrograph + CCD0.127-m f/5.6 refractor + CCD0.50-m f/6.8 reflector +
   CCD0.30-m f/9 reflector + CCD.

Orbital elements:  GG0410
   Perihelion 2024 Jan 13.31976 +/- 131 TT =  7:40:27 (JD 2460322.81976)
Epoch 2023 Sep 18.0 TT = JDT 2460205.5   Earth MOID: 0.3446   Me: 0.0459
M 263.01386338 +/- 90               (J2000 ecliptic)             AutoNEOCP
n   0.82668200 +/- 0.44             Peri.  352.75955 +/- 60
a   1.12437296 +/- 0.399            Node   153.84652 +/- 48
e   0.6399757 +/- 0.23              Incl.   26.38601 +/- 38
P   1.19/435.47d           H 19.04  G  0.15   U 12.2  SR
q 0.40480149 +/- 0.501    Q 1.84394442 +/- 18.9
From 2 observations 2023 Sept. 18 (15.5 min); mean residual 0".01
Residuals in arcseconds: 
230918 Q62  .01-  .00     230918 Q62  .01-  .00     

Ephemerides (geocentric):
Date (UTC) HH   RA             Dec           delta  r     elong  mag " sig PA
---- --------  ------------   ------------  ------ ------ -----  --- --------
2023 09 27 01  23 16 14.652   -33 43 08.87  .56867 1.4945 142.5 19.8  27d  68
2023 09 27 02  23 16 06.162   -33 44 51.51  .56867 1.4942 142.5 19.8  27d  68
2023 09 27 03  23 15 57.669   -33 46 34.04  .56867 1.4940 142.4 19.8  27d  68
2023 09 27 04  23 15 49.173   -33 48 16.46  .56867 1.4937 142.4 19.8  27d  68
2023 09 27 05  23 15 40.674   -33 49 58.77  .56867 1.4934 142.3 19.8  27d  68
2023 09 27 06  23 15 32.172   -33 51 40.98  .56867 1.4931 142.2 19.8  27d  69
2023 09 27 07  23 15 23.667   -33 53 23.07  .56867 1.4929 142.2 19.8  27d  69
2023 09 27 08  23 15 15.159   -33 55 05.06  .56867 1.4926 142.1 19.8  27d  69
2023 09 27 09  23 15 06.647   -33 56 46.94  .56867 1.4923 142.0 19.8  27d  69
2023 09 27 10  23 14 58.133   -33 58 28.71  .56867 1.4920 142.0 19.8  27d  69
2023 09 27 11  23 14 49.616   -34 00 10.37  .56867 1.4917 141.9 19.8  27d  69
2023 09 27 12  23 14 41.096   -34 01 51.92  .56868 1.4914 141.8 19.8  27d  69
2023 09 27 13  23 14 32.573   -34 03 33.36  .56868 1.4912 141.8 19.8  27d  69
2023 09 27 14  23 14 24.047   -34 05 14.69  .56869 1.4909 141.7 19.8  27d  69
2023 09 27 15  23 14 15.518   -34 06 55.91  .56869 1.4906 141.6 19.8  27d  69
2023 09 27 16  23 14 06.987   -34 08 37.02  .56869 1.4903 141.6 19.8  27d  69
2023 09 27 17  23 13 58.452   -34 10 18.01  .56870 1.4900 141.5 19.8  27d  69
2023 09 27 18  23 13 49.915   -34 11 58.90  .56871 1.4898 141.4 19.8  27d  69
2023 09 27 19  23 13 41.375   -34 13 39.67  .56871 1.4895 141.4 19.8  27d  69
2023 09 27 20  23 13 32.833   -34 15 20.33  .56872 1.4892 141.3 19.8  27d  69
2023 09 27 21  23 13 24.288   -34 17 00.88  .56873 1.4889 141.2 19.8  27d  69
2023 09 27 22  23 13 15.740   -34 18 41.32  .56873 1.4886 141.2 19.8  27d  70
2023 09 27 23  23 13 07.189   -34 20 21.64  .56874 1.4884 141.1 19.8  27d  70
2023 09 28 00  23 12 58.636   -34 22 01.86  .56875 1.4881 141.0 19.8  27d  70
2023 09 28 01  23 12 50.080   -34 23 41.96  .56876 1.4878 141.0 19.8  27d  70
2023 09 28 02  23 12 41.522   -34 25 21.94  .56877 1.4875 140.9 19.8  27d  70
2023 09 28 03  23 12 32.961   -34 27 01.82  .56878 1.4872 140.8 19.8  27d  70
2023 09 28 04  23 12 24.397   -34 28 41.57  .56879 1.4869 140.8 19.8  27d  70
2023 09 28 05  23 12 15.831   -34 30 21.22  .56880 1.4867 140.7 19.8  27d  70
2023 09 28 06  23 12 07.263   -34 32 00.75  .56881 1.4864 140.6 19.8  27d  70
2023 09 28 07  23 11 58.692   -34 33 40.17  .56882 1.4861 140.6 19.8  27d  70
2023 09 28 08  23 11 50.119   -34 35 19.47  .56884 1.4858 140.5 19.8  27d  70
2023 09 28 09  23 11 41.543   -34 36 58.66  .56885 1.4855 140.4 19.8  27d  70
2023 09 28 10  23 11 32.965   -34 38 37.73  .56886 1.4852 140.4 19.8  28d  70
2023 09 28 11  23 11 24.385   -34 40 16.69  .56888 1.4850 140.3 19.8  28d  70
2023 09 28 12  23 11 15.802   -34 41 55.53  .56889 1.4847 140.2 19.8  28d  70
2023 09 28 13  23 11 07.217   -34 43 34.25  .56891 1.4844 140.2 19.8  28d  70
2023 09 28 14  23 10 58.630   -34 45 12.86  .56892 1.4841 140.1 19.8  28d  70
2023 09 28 15  23 10 50.040   -34 46 51.36  .56894 1.4838 140.0 19.8  28d  70
2023 09 28 16  23 10 41.448   -34 48 29.74  .56895 1.4835 140.0 19.8  28d  70
2023 09 28 17  23 10 32.854   -34 50 08.00  .56897 1.4833 139.9 19.8  28d  70
2023 09 28 18  23 10 24.258   -34 51 46.14  .56899 1.4830 139.8 19.8  28d  70
2023 09 28 19  23 10 15.660   -34 53 24.17  .56900 1.4827 139.8 19.9  28d  70
2023 09 28 20  23 10 07.060   -34 55 02.08  .56902 1.4824 139.7 19.9  28d  70
2023 09 28 21  23 09 58.457   -34 56 39.87  .56904 1.4821 139.6 19.9  28d  70
2023 09 28 22  23 09 49.853   -34 58 17.55  .56906 1.4818 139.6 19.9  28d  70
2023 09 28 23  23 09 41.246   -34 59 55.11  .56908 1.4816 139.5 19.9  28d  70
2023 09 29 00  23 09 32.637   -35 01 32.55  .56910 1.4813 139.4 19.9  28d  70